EN

Hourly Weather Bolshoe Korovino

Today, 23 October, Friday

Time Temperature Precipitation Wind Pressure Humidity
00:00 +7°C° 0.1 mm 5 mps 741 mmHg 87%
01:00 +7°C° 0 mm 5 mps 740 mmHg 87%
02:00 +7°C° 0 mm 6 mps 740 mmHg 87%
03:00 +7°C° 0 mm 6 mps 740 mmHg 88%
04:00 +8°C° 0.1 mm 6 mps 739 mmHg 88%
05:00 +8°C° 0.1 mm 6 mps 739 mmHg 88%
06:00 +9°C° 0.1 mm 7 mps 739 mmHg 87%
07:00 +10°C° 0 mm 7 mps 739 mmHg 85%
08:00 +10°C° 0 mm 7 mps 739 mmHg 83%
09:00 +10°C° 0 mm 7 mps 739 mmHg 81%
10:00 +11°C° 0 mm 7 mps 740 mmHg 80%
11:00 +11°C° 0 mm 7 mps 740 mmHg 79%
12:00 +11°C° 0 mm 7 mps 740 mmHg 78%
13:00 +11°C° 0 mm 7 mps 740 mmHg 77%
14:00 +11°C° 0 mm 7 mps 740 mmHg 77%
15:00 +11°C° 0 mm 6 mps 740 mmHg 77%
16:00 +10°C° 0 mm 5 mps 740 mmHg 80%
17:00 +10°C° 0 mm 5 mps 740 mmHg 84%
18:00 +10°C° 0 mm 4 mps 739 mmHg 88%
19:00 +11°C° 0.9 mm 4 mps 739 mmHg 89%
20:00 +10°C° 0.9 mm 5 mps 739 mmHg 91%
21:00 +10°C° 0.9 mm 6 mps 738 mmHg 93%
22:00 +10°C° 0.4 mm 6 mps 738 mmHg 91%
23:00 +11°C° 0.4 mm 6 mps 738 mmHg 89%

Tomorrow, 24 October, Saturday

Time Temperature Precipitation Wind Pressure Humidity
00:00 +11°C° 0.4 mm 7 mps 737 mmHg 87%
01:00 +10°C° 0 mm 6 mps 738 mmHg 88%
02:00 +10°C° 0 mm 6 mps 738 mmHg 89%
03:00 +9°C° 0 mm 6 mps 738 mmHg 90%
04:00 +9°C° 0 mm 5 mps 738 mmHg 91%
05:00 +8°C° 0 mm 5 mps 739 mmHg 92%
06:00 +8°C° 0 mm 5 mps 739 mmHg 92%
07:00 +8°C° 0 mm 5 mps 739 mmHg 90%
08:00 +8°C° 0 mm 5 mps 740 mmHg 87%
09:00 +8°C° 0 mm 4 mps 740 mmHg 85%
10:00 +10°C° 0 mm 4 mps 741 mmHg 80%
11:00 +10°C° 0 mm 4 mps 741 mmHg 76%
12:00 +10°C° 0 mm 4 mps 741 mmHg 71%
13:00 +10°C° 0 mm 4 mps 741 mmHg 71%
14:00 +10°C° 0 mm 4 mps 741 mmHg 72%
15:00 +10°C° 0 mm 4 mps 742 mmHg 72%
16:00 +10°C° 0 mm 3 mps 742 mmHg 74%
17:00 +10°C° 0 mm 3 mps 742 mmHg 77%
18:00 +9°C° 0 mm 2 mps 742 mmHg 79%
19:00 +9°C° 0 mm 2 mps 742 mmHg 80%
20:00 +9°C° 0 mm 2 mps 742 mmHg 81%
21:00 +8°C° 0 mm 2 mps 742 mmHg 82%
22:00 +8°C° 0 mm 2 mps 742 mmHg 82%
23:00 +8°C° 0 mm 2 mps 742 mmHg 83%

Day after tomorrow, 25 October, Sunday

Time Temperature Precipitation Wind Pressure Humidity
00:00 +8°C° 0 mm 2 mps 742 mmHg 84%
01:00 +8°C° 0.1 mm 2 mps 742 mmHg 85%
02:00 +8°C° 0.1 mm 2 mps 741 mmHg 86%
03:00 +8°C° 0.1 mm 2 mps 741 mmHg 88%
04:00 +9°C° 0.7 mm 1 mps 741 mmHg 90%
05:00 +9°C° 0.7 mm 1 mps 741 mmHg 92%
06:00 +8°C° 0.7 mm 1 mps 741 mmHg 95%
07:00 +7°C° 0.2 mm 2 mps 741 mmHg 93%
08:00 +7°C° 0.2 mm 2 mps 741 mmHg 91%
09:00 +7°C° 0.2 mm 3 mps 741 mmHg 89%
10:00 +7°C° 0 mm 4 mps 741 mmHg 84%
11:00 +8°C° 0 mm 4 mps 742 mmHg 78%
12:00 +8°C° 0 mm 4 mps 742 mmHg 73%
13:00 +8°C° 0.1 mm 4 mps 742 mmHg 76%
14:00 +8°C° 0.1 mm 4 mps 743 mmHg 78%
15:00 +8°C° 0.1 mm 4 mps 743 mmHg 81%
16:00 +9°C° 0.1 mm 3 mps 743 mmHg 83%
17:00 +8°C° 0.1 mm 3 mps 744 mmHg 86%
18:00 +8°C° 0.1 mm 3 mps 744 mmHg 89%
19:00 +7°C° 0 mm 4 mps 744 mmHg 88%
20:00 +7°C° 0 mm 4 mps 745 mmHg 87%
21:00 +7°C° 0 mm 5 mps 746 mmHg 86%
22:00 +7°C° 0 mm 5 mps 746 mmHg 86%
23:00 +6°C° 0 mm 5 mps 747 mmHg 85%

, 26 October, Monday

Time Temperature Precipitation Wind Pressure Humidity
00:00 +6°C° 0 mm 5 mps 747 mmHg 85%
01:00 +6°C° 0 mm 5 mps 747 mmHg 85%
02:00 +5°C° 0 mm 4 mps 748 mmHg 85%
03:00 +5°C° 0 mm 4 mps 748 mmHg 86%
04:00 +4°C° 0 mm 4 mps 749 mmHg 88%
05:00 +3°C° 0 mm 3 mps 749 mmHg 91%
06:00 +3°C° 0 mm 3 mps 750 mmHg 93%
07:00 +3°C° 0 mm 3 mps 750 mmHg 92%
08:00 +3°C° 0 mm 3 mps 751 mmHg 91%
09:00 +3°C° 0 mm 3 mps 751 mmHg 89%
10:00 +4°C° 0 mm 3 mps 752 mmHg 80%
11:00 +5°C° 0 mm 3 mps 752 mmHg 71%
12:00 +7°C° 0 mm 2 mps 752 mmHg 62%
13:00 +7°C° 0 mm 2 mps 752 mmHg 61%
14:00 +8°C° 0 mm 2 mps 753 mmHg 59%
15:00 +8°C° 0 mm 2 mps 753 mmHg 58%
16:00 +7°C° 0 mm 2 mps 753 mmHg 63%
17:00 +7°C° 0 mm 1 mps 753 mmHg 69%
18:00 +6°C° 0 mm 1 mps 753 mmHg 74%
19:00 +6°C° 0 mm 1 mps 753 mmHg 76%
20:00 +5°C° 0 mm 1 mps 754 mmHg 78%
21:00 +5°C° 0 mm 1 mps 754 mmHg 80%
22:00 +5°C° 0 mm 1 mps 754 mmHg 80%
23:00 +4°C° 0 mm 1 mps 754 mmHg 81%

26 October, Monday

Time Temperature Precipitation Wind Pressure Humidity
00:00 +6°C° 0 mm 5 mps 747 mmHg 85%
01:00 +6°C° 0 mm 5 mps 747 mmHg 85%
02:00 +5°C° 0 mm 4 mps 748 mmHg 85%
03:00 +5°C° 0 mm 4 mps 748 mmHg 86%
04:00 +4°C° 0 mm 4 mps 749 mmHg 88%
05:00 +3°C° 0 mm 3 mps 749 mmHg 91%
06:00 +3°C° 0 mm 3 mps 750 mmHg 93%
07:00 +3°C° 0 mm 3 mps 750 mmHg 92%
08:00 +3°C° 0 mm 3 mps 751 mmHg 91%
09:00 +3°C° 0 mm 3 mps 751 mmHg 89%
10:00 +4°C° 0 mm 3 mps 752 mmHg 80%
11:00 +5°C° 0 mm 3 mps 752 mmHg 71%
12:00 +7°C° 0 mm 2 mps 752 mmHg 62%
13:00 +7°C° 0 mm 2 mps 752 mmHg 61%
14:00 +8°C° 0 mm 2 mps 753 mmHg 59%
15:00 +8°C° 0 mm 2 mps 753 mmHg 58%
16:00 +7°C° 0 mm 2 mps 753 mmHg 63%
17:00 +7°C° 0 mm 1 mps 753 mmHg 69%
18:00 +6°C° 0 mm 1 mps 753 mmHg 74%
19:00 +6°C° 0 mm 1 mps 753 mmHg 76%
20:00 +5°C° 0 mm 1 mps 754 mmHg 78%
21:00 +5°C° 0 mm 1 mps 754 mmHg 80%
22:00 +5°C° 0 mm 1 mps 754 mmHg 80%
23:00 +4°C° 0 mm 1 mps 754 mmHg 81%

27 October, Tuesday

Time Temperature Precipitation Wind Pressure Humidity
00:00 +4°C° 0 mm 1 mps 754 mmHg 82%
01:00 +3°C° 0 mm 2 mps 755 mmHg 82%
02:00 +2°C° 0 mm 2 mps 755 mmHg 82%
03:00 +2°C° 0 mm 2 mps 755 mmHg 82%
04:00 +2°C° 0 mm 2 mps 755 mmHg 83%
05:00 +2°C° 0 mm 2 mps 755 mmHg 83%
06:00 +2°C° 0 mm 2 mps 755 mmHg 84%
07:00 +2°C° 0 mm 2 mps 755 mmHg 82%
08:00 +2°C° 0 mm 3 mps 756 mmHg 80%
09:00 +2°C° 0 mm 3 mps 756 mmHg 79%
10:00 +3°C° 0 mm 3 mps 756 mmHg 74%
11:00 +4°C° 0 mm 3 mps 756 mmHg 69%
12:00 +7°C° 0 mm 3 mps 756 mmHg 64%
13:00 +7°C° 0 mm 3 mps 756 mmHg 63%
14:00 +6°C° 0 mm 4 mps 755 mmHg 62%
15:00 +7°C° 0 mm 4 mps 755 mmHg 61%
16:00 +7°C° 0 mm 3 mps 755 mmHg 66%
17:00 +5°C° 0 mm 3 mps 755 mmHg 72%
18:00 +3°C° 0 mm 3 mps 755 mmHg 77%
19:00 +3°C° 0 mm 3 mps 754 mmHg 77%
20:00 +3°C° 0 mm 4 mps 754 mmHg 77%
21:00 +3°C° 0 mm 4 mps 754 mmHg 76%
22:00 +3°C° 0 mm 4 mps 754 mmHg 76%
23:00 +4°C° 0 mm 4 mps 754 mmHg 75%

28 October, Wednesday

Time Temperature Precipitation Wind Pressure Humidity
00:00 +4°C° 0 mm 4 mps 754 mmHg 75%
01:00 +4°C° 0 mm 4 mps 754 mmHg 75%
02:00 +4°C° 0 mm 4 mps 753 mmHg 76%
03:00 +4°C° 0 mm 4 mps 753 mmHg 76%
04:00 +4°C° 0 mm 4 mps 753 mmHg 76%
05:00 +4°C° 0 mm 4 mps 753 mmHg 76%
06:00 +4°C° 0 mm 4 mps 753 mmHg 75%
07:00 +5°C° 0 mm 4 mps 753 mmHg 76%
08:00 +5°C° 0 mm 4 mps 753 mmHg 76%
09:00 +5°C° 0 mm 4 mps 752 mmHg 77%
10:00 +6°C° 0 mm 5 mps 752 mmHg 74%
11:00 +7°C° 0 mm 5 mps 752 mmHg 72%
12:00 +7°C° 0 mm 5 mps 752 mmHg 70%
13:00 +8°C° 0 mm 5 mps 752 mmHg 67%
14:00 +8°C° 0 mm 5 mps 752 mmHg 65%
15:00 +10°C° 0 mm 4 mps 751 mmHg 63%
16:00 +8°C° 0 mm 4 mps 751 mmHg 66%
17:00 +7°C° 0 mm 4 mps 751 mmHg 68%
18:00 +7°C° 0 mm 4 mps 751 mmHg 70%
19:00 +6°C° 0 mm 4 mps 751 mmHg 69%
20:00 +6°C° 0 mm 4 mps 751 mmHg 67%
21:00 +6°C° 0 mm 5 mps 751 mmHg 65%
22:00 +6°C° 0 mm 5 mps 751 mmHg 65%
23:00 +6°C° 0 mm 5 mps 751 mmHg 64%
Show more